Location: *
(49.9853°N, 3.5569°E)
Time: 14:37:11
(UTC+00:00)

Ariane Rocket - Pass Details

Date: 22 September 2019
Orbit: 761 x 769 km, 98.8° (Epoch: 15 October)

Event Time Altitude Azimuth Distance (km) Brightness Sun altitude
Rises 18:51:43 0° 172° (S) 3,214 6.0 -11.5°
Reaches altitude 10° 18:54:02 10° 176° (S) 2,294 5.3 -11.9°
Maximum altitude 18:59:03 64° 257° (WSW) 852 3.5 -12.6°
Drops below altitude 10° 19:04:07 10° 339° (NNW) 2,317 6.0 -13.4°
Sets 19:06:28 0° 343° (NNW) 3,249 6.8 -13.8°
